Regional Weather Roundup
Issued by NWS

Home | Current Version | Previous Version | Graphics & Text | Print | Product List | Glossary On
Versions: 1 2 3 4 5 6 7 8 9 10 11 12 13 14 15 16 17 18 19 20 21 22 23 24 25 26 27 28 29 30 31 32 33 34 35 36 37 38 39 40 41 42 43 44 45 46 47 48 49 50
000
ASUS43 KLMK 250810
RWRKY
KENTUCKY REGIONAL WEATHER ROUNDUP
NATIONAL WEATHER SERVICE LOUISVILLE KY
400 AM EDT MON MAY 25 2015

NOTE "FAIR" INDICATES FEW OR NO CLOUDS BELOW 12,000 FEET
WITH NO SIGNIFICANT WEATHER AND/OR OBSTRUCTIONS TO VISIBILITY.

KYZ001>023-026-027-061>063-070>075-250900-
WESTERN AND SOUTH CENTRAL KENTUCKY

CITY           SKY/WX    TMP DP  RH WIND       PRES   REMARKS
PADUCAH        LGT RAIN  69  66  90 S13G23    30.01S
HENDERSON      CLOUDY    68  64  88 S12       30.02S
OWENSBORO      CLOUDY    71  68  90 S10       30.04F
HOPKINSVILLE   LGT RAIN  70  66  88 S10       30.07R
BOWLING GREEN  CLOUDY    74  59  59 S9        30.09S
GLASGOW        MOCLDY    73  56  56 S9G18     30.11R
$$

KYZ024-025-028>034-038-045-046-053-250900-
NORTH CENTRAL KENTUCKY

CITY           SKY/WX    TMP DP  RH WIND       PRES   REMARKS
LOUISVILLE/SDF CLOUDY    76  58  53 S10       30.08R
LOUISVILLE/LOU CLOUDY    75  58  55 S8G18     30.08S
FORT KNOX      CLOUDY    73  60  65 S6        30.07S
$$

KYZ035>037-039>044-047>052-055>060-089>105-250900-
NORTHEAST KENTUCKY

CITY           SKY/WX    TMP DP  RH WIND       PRES   REMARKS
LEXINGTON      MOCLDY    70  55  59 S12       30.13S
COVINGTON      MOCLDY    69  55  60 S12       30.09S
FRANKFORT      CLOUDY    69  56  62 S6        30.10S
$$

KYZ054-064>069-076>088-106>120-250900-
SOUTHEAST KENTUCKY

CITY           SKY/WX    TMP DP  RH WIND       PRES   REMARKS
JACKSON        CLEAR     66  50  56 CALM      30.19S
LONDON         PTCLDY    64  51  62 SE3       30.18S
SOMERSET       MOCLDY    64  54  68 S3        30.17S
MIDDLESBORO    PTCLDY    56  55  96 CALM      30.22S
MONTICELLO     MOSUNNY   73  56  55 S12G20    30.18S
$$



USA.gov is the U.S. government's official web portal to all federal, state and local government web resources and services.